Location: Aix-en-Ergny
(50.5839°N, 1.9996°E)
Time: 07:37:08
(UTC+00:00)

USA 116 - Pass Details

Date: 23 October 2019
Orbit: 405 x 834 km, 97.9° (Epoch: 18 November)

Event Time Altitude Azimuth Distance (km) Brightness Sun altitude
Rises 05:14:34 0° 167° (SSE) 2,586 7.4 -12.2°
Reaches altitude 10° 05:16:44 10° 168° (SSE) 1,650 6.4 -11.8°
Maximum altitude 05:20:14 81° 255° (WSW) 460 3.2 -11.3°
Drops below altitude 10° 05:23:28 10° 344° (NNW) 1,527 5.8 -10.8°
Sets 05:25:24 0° 345° (NNW) 2,372 6.8 -10.4°
